29P/Schwassmann-Wachmann 1 (2019)

Japanese version
Home page
Updated on October 6, 2021

---------------------------------------------------------------------

* Profile

* Pictures

* Orbital Elements

Epoch 2019 Mar. 18.0 TT = JDT 2458560.5
T 2019 Mar. 7.75652 TT                                  Rudenko
q   5.7668221            (2000.0)            P               Q
n   0.06662628     Peri.   47.77439     +0.99270158     -0.00956927
a   6.0261369      Node   312.39461     -0.05135146     +0.86841762
e   0.0430317      Incl.    9.36832     +0.10911733     +0.49574112
P  14.8
From 36672 observations 1902 Mar. 4-2021 Mar. 12, mean residual 1".0.

* Finding Charts

* Magnitudes Graph

        m1 = 4.0 + 5 log d + 7.5 log r

---------------------------------------------------------------------

The orbital elements are published on M.P.E.C. 2021-F20.
The charts are made with StellaNavigator Ver.8 (AstroArts).
The magnitudes graphs are made with Comet for Windows.

---------------------------------------------------------------------

Copyright(C) Seiichi Yoshida (comet@aerith.net). All rights reserved.